Winfield, KS

10:28 PM CDT on October 20, 2017 (GMT -0500)
Strother

Weather History for KWLD - November, 2012

Change the Weather History Date:

Friday, November 30, 2012

  Actual Average Record
Temperature  
Mean Temperature 53 °F -  
Max Temperature 64 °F 50 °F 64 °F (2012)
Min Temperature 42 °F 31 °F 16 °F (2006)
Degree Days  
Heating Degree Days 12    
Growing Degree Days 3 (Base 50)    
Moisture  
Dew Point 46 °F    
Average Humidity 78    
Maximum Humidity 94    
Minimum Humidity 61    
Precipitation  
Precipitation 0.00 in - - ()
Sea Level Pressure  
Sea Level Pressure 30.02 in    
Wind  
Wind Speed 7 mph (SSE)    
Max Wind Speed 16 mph    
Max Gust Speed 22 mph    
Visibility 9 miles    
Events      
Averages and records for this station are not official NWS values.
T = Trace of Precipitation, MM = Missing Value Source: NWS Daily Summary

Daily Weather History Graph

Daily Weather History Graph

Search for Another Location

Airport or City:

Trip Planner

Search our weather history database for the weather conditions in past years. The results will help you decide how hot, cold, wet, or windy it might be!

Date:

Astronomy

Nov. 30, 2012 Rise Set
Actual Time 7:22 AM CST 5:11 PM CST
Civil Twilight 6:54 AM CST 5:39 PM CST
Nautical Twilight 6:21 AM CST 6:11 PM CST
Astronomical Twilight 5:50 AM CST 6:43 PM CST
Moon 7:06 PM CST (11/30) 8:55 AM CST (11/30)
Length of Visible Light 10h 45m
Length of Day
9h 48m
Waning Gibbous, 96% of the Moon is Illuminated
Nov 30
Waning Gibbous
Dec 6
Last Quarter
Dec 13
New
Dec 19
First Quarter
Dec 28
Full

Hourly Weather History & Observations

Time (CST) Temp. Windchill Dew Point Humidity Pressure Visibility Wind Dir Wind Speed Gust Speed Precip Events Conditions
12:54 AM 46.0 °F 42.5 °F 34.0 °F 63% 30.05 in 10.0 mi SSE 6.9 mph - N/A   Clear
1:54 AM 46.0 °F 43.9 °F 34.0 °F 63% 30.04 in 10.0 mi SE 4.6 mph - N/A   Clear
2:54 AM 46.0 °F 42.5 °F 35.1 °F 66% 30.05 in 10.0 mi SE 6.9 mph - N/A   Clear
3:54 AM 43.0 °F 38.8 °F 35.1 °F 74% 30.04 in 10.0 mi SSE 6.9 mph - N/A   Clear
4:54 AM 45.0 °F 41.8 °F 37.9 °F 76% 30.05 in 10.0 mi SE 5.8 mph - N/A   Clear
5:54 AM 44.1 °F 39.5 °F 37.9 °F 79% 30.05 in 10.0 mi SSE 8.1 mph - N/A   Clear
6:54 AM 42.1 °F 38.4 °F 37.9 °F 85% 30.06 in 10.0 mi SSE 5.8 mph - N/A   Clear
7:54 AM 42.1 °F 39.2 °F 39.9 °F 92% 30.08 in 9.0 mi SSE 4.6 mph - N/A   Clear
8:54 AM 48.0 °F - 43.0 °F 83% 30.09 in 10.0 mi SE 5.8 mph - N/A   Clear
9:54 AM 54.0 °F - 46.0 °F 75% 30.09 in 10.0 mi South 6.9 mph - N/A   Clear
10:54 AM 57.9 °F - 48.9 °F 72% 30.08 in 10.0 mi South 5.8 mph - N/A   Clear
11:54 AM 59.0 °F - 50.0 °F 72% 30.05 in 10.0 mi SSE 3.5 mph - N/A   Clear
12:54 PM 62.1 °F - 51.1 °F 67% 30.03 in 10.0 mi SSE 6.9 mph - N/A   Clear
1:54 PM 64.9 °F - 51.1 °F 61% 30.01 in 10.0 mi SSE 9.2 mph - N/A   Clear
2:54 PM 64.9 °F - 51.1 °F 61% 29.99 in 10.0 mi SSE 10.4 mph - N/A   Clear
3:54 PM 64.0 °F - 51.1 °F 63% 29.98 in 10.0 mi SE 10.4 mph - N/A   Clear
4:54 PM 60.1 °F - 51.1 °F 72% 29.98 in 9.0 mi SE 16.1 mph 21.9 mph N/A   Clear
5:54 PM 54.0 °F - 50.0 °F 86% 30.00 in 8.0 mi SSE 10.4 mph - N/A   Clear
6:54 PM 52.0 °F - 50.0 °F 93% 30.02 in 7.0 mi SSE 4.6 mph - N/A   Clear
8:54 PM 53.1 °F - 51.1 °F 93% 29.99 in 6.0 mi SE 5.8 mph - N/A   Clear
9:54 PM 54.0 °F - 52.0 °F 93% 29.98 in 6.0 mi SSE 12.7 mph - N/A   Partly Cloudy
11:04 PM 55.4 °F - 53.6 °F 94% 29.97 in 5.0 mi SSE 13.8 mph - N/A   Mostly Cloudy
11:40 PM 57.2 °F - 55.4 °F 94% 29.96 in 6.0 mi SSE 13.8 mph - N/A   Overcast
11:54 PM 57.9 °F - 55.9 °F 93% 29.94 in 6.0 mi SSE 11.5 mph - N/A   Overcast